Location: Tucson
(32.2217°N, 110.9265°W)
Time: 07:09:40
(UTC-07:00)

Tiros 1 - Pass Details

Date: 28 October 2021
Orbit: 629 x 664 km, 48.4° (Epoch: 26 November)

Event Time Altitude Azimuth Distance (km) Brightness Sun altitude
Rises 15:18:34 0° 309° (NW) 2,956 10.7 25.4°
Reaches altitude 10° 15:20:55 10° 309° (NW) 2,038 10.0 25.0°
Maximum altitude 15:25:37 85° 223° (SW) 643 7.7 24.2°
Drops below altitude 10° 15:30:15 10° 133° (SE) 2,008 9.6 23.4°
Sets 15:32:33 0° 133° (SE) 2,909 10.4 23.0°
